Temperature
15 15 15 14 14 14 14 14 13 13 13 13 13 13 12 12 12 12 12 11 11 11 11 10 10 10 10 10 10 10 10 10 9 10 10 10 10 10 10 10 10 10 10
15 15 15 14 14 14 14 14 13 13 13 13 12 12 12 12 12 12 12 11 11 11 10 10 10 10 10 10 10 10 9 9 9 9 9 9 9 9 9 10 10 10 10
14 14 14 14 14 14 14 13 13 13 13 12 12 12 12 12 12 12 11 11 11 11 10 10 10 10 10 9 9 9 9 9 9 9 9 9 9 9 9 9 9 9 9
14 14 14 14 14 14 13 13 13 13 12 12 12 12 12 12 11 11 11 11 11 10 10 10 10 10 9 9 9 9 9 9 9 8 8 9 9 9 9 9 9 9 9
14 14 14 14 13 13 13 13 13 12 12 12 12 12 11 11 11 11 11 11 11 10 10 10 10 9 9 9 9 9 9 8 8 8 8 8 8 8 9 9 8 9 9
13 13 13 13 13 13 13 12 12 12 12 12 12 11 11 11 11 11 11 10 10 10 10 10 9 9 9 9 8 8 8 8 8 8 8 8 8 8 8 8 8 8 8
13 13 13 13 12 12 12 12 12 12 12 12 11 11 11 11 11 11 10 10 10 10 10 10 9 9 9 9 8 8 8 8 8 8 8 8 8 8 8 8 8 8 8
12 12 12 12 12 12 12 12 11 11 11 11 11 11 11 11 10 10 10 10 10 9 9 9 9 9 9 8 8 8 8 8 8 8 8 8 8 8 7 7 7 7 7
12 12 12 11 11 11 11 11 11 11 11 11 11 11 10 10 10 10 10 10 9 9 9 9 9 8 8 8 8 8 8 8 8 7 7 7 7 7 7 7 7 7 7
11 11 11 11 11 11 11 11 11 10 10 10 10 10 10 10 10 10 9 9 9 9 9 9 8 8 8 8 8 8 8 8 7 7 7 7 7 7 7 7 7 7 6
10 10 10 10 10 10 10 10 10 10 10 10 10 10 10 9 9 9 9 9 9 9 9 8 8 8 8 8 7 7 7 7 7 7 7 7 7 7 6 6 6 6 6
10 10 10 10 10 10 9 9 9 9 9 9 9 9 9 9 9 9 9 9 9 8 8 8 8 8 8 7 7 7 7 7 7 7 6 6 6 6 6 6 6 6 6
9 9 9 9 9 9 9 9 9 9 9 9 9 9 9 9 8 8 8 8 8 8 8 8 8 7 7 7 7 7 6 6 6 6 6 6 6 6 6 6 5 5 5
8 9 9 9 8 8 8 8 8 8 8 8 8 8 8 8 8 8 8 8 8 8 7 7 7 7 7 7 6 6 6 6 6 6 5 5 5 5 5 5 5 5 5
8 8 8 8 8 8 8 8 8 8 7 7 7 7 7 8 8 7 7 7 7 7 7 7 7 6 6 6 6 6 5 5 5 5 5 5 5 5 5 5 5 5 4
7 7 7 7 7 7 7 7 7 7 7 7 7 7 7 7 7 7 7 7 6 6 6 6 6 6 6 6 5 5 5 5 5 4 4 4 4 4 4 4 4 4 4
7 7 7 7 7 7 6 6 6 6 6 6 6 6 6 6 6 6 6 6 6 6 6 6 5 5 5 5 5 5 4 4 4 4 4 4 4 4 4 4 4 4 4
6 6 6 6 6 6 6 6 6 6 6 6 6 6 6 6 6 6 6 5 5 5 5 5 5 5 5 4 4 4 4 4 3 3 3 3 3 3 3 3 3 3 3
6 6 6 6 6 5 5 5 5 5 5 5 5 5 5 5 5 5 5 5 5 5 5 5 4 4 4 4 4 3 3 3 3 3 3 3 2 2 2 3 3 3 3
5 5 5 5 5 5 5 5 5 5 4 4 4 4 4 4 5 4 4 4 4 4 4 4 4 4 4 3 3 3 3 3 2 2 2 2 2 2 2 2 2 2 2
5 5 5 5 4 4 4 4 4 4 4 4 4 4 4 4 4 4 4 4 3 3 3 3 3 3 3 3 3 3 3 2 2 2 2 2 2 2 2 2 2 2 2
4 4 4 4 4 4 4 4 4 4 4 4 4 3 3 3 3 3 3 3 3 3 3 3 3 3 3 3 3 2 2 2 2 2 2 2 2 2 2 1 1 1 1
4 4 4 3 3 3 3 3 3 3 3 3 3 3 3 3 3 3 3 3 2 2 2 2 2 2 2 2 2 2 2 2 2 2 1 1 1 1 1 1 1 1 1
3 3 3 3 3 3 3 3 3 3 3 3 3 3 2 2 2 2 2 2 2 2 2 2 2 2 2 2 2 2 2 2 2 1 1 1 1 1 1 1 1 1 1
3 3 3 3 3 2 2 3 3 3 3 2 2 2 2 2 2 2 2 2 2 2 2 2 2 2 2 2 2 2 2 2 2 1 1 1 1 1 1 1 1 1 1
2 2 2 2 2 2 2 2 2 2 2 2 2 2 2 2 2 2 1 1 1 1 2 1 1 1 1 1 2 2 2 1 1 1 1 1 1 1 0 0 0 0 0
Wind_Speed
4 4 4 4 4 4 4 5 5 4 4 4 5 5 4 4 4 4 3 3 3 3 2 3 3 2 2 2 2 2 2 2 2 1 1 2 1 2 2 2 3 2 2
4 4 4 4 4 4 5 4 4 4 4 5 5 5 5 4 4 5 5 4 4 4 4 3 3 2 2 2 2 2 2 2 2 2 1 1 1 2 1 2 2 2 2
2 3 3 3 3 5 5 4 3 3 4 4 4 5 5 5 5 5 5 5 5 5 4 4 4 4 3 2 3 3 2 2 2 2 1 1 1 1 1 2 2 2 2
1 2 3 3 4 5 4 4 4 3 3 5 5 5 5 5 5 5 5 4 4 4 4 5 5 6 6 5 4 4 3 3 2 2 1 1 1 1 0 0 1 2 2
1 2 3 3 2 2 3 3 3 4 4 4 4 5 5 5 5 6 5 5 4 4 4 4 5 6 7 6 5 5 5 4 3 2 2 1 1 1 1 1 1 2 2
2 3 2 1 1 2 2 2 3 3 4 3 4 5 5 5 7 8 6 5 5 5 5 4 4 5 6 7 7 7 7 6 5 4 3 3 3 3 2 2 1 0 2
1 2 2 2 2 2 2 2 3 4 3 3 4 4 5 6 7 8 8 5 5 5 5 4 4 4 5 4 5 5 6 7 7 6 5 5 4 5 4 2 2 2 3
2 2 2 2 2 2 1 2 3 3 3 4 4 4 4 6 7 8 9 6 5 5 5 5 5 4 5 5 4 4 4 4 6 5 6 6 5 5 5 5 4 2 1
3 3 3 2 2 2 2 3 3 3 4 4 4 4 5 6 7 7 7 4 4 5 4 4 5 5 6 6 5 4 3 3 4 6 6 5 5 5 4 3 2 2 2
3 4 3 2 2 3 4 3 3 3 4 4 4 4 5 5 7 8 7 4 4 3 3 3 5 6 6 7 6 5 5 5 3 2 3 3 2 3 5 4 5 3 2
3 3 3 2 2 3 2 2 2 2 2 3 3 3 4 5 6 7 7 4 5 4 3 3 3 6 6 7 6 6 7 5 3 3 2 2 1 1 2 3 4 4 4
2 2 3 2 2 2 1 2 2 2 2 3 2 3 3 4 4 6 7 7 6 4 4 4 4 5 5 6 5 5 5 4 2 2 2 2 2 3 3 3 4 4 4
2 2 3 2 1 1 1 1 1 2 2 3 3 3 3 3 3 6 7 7 7 5 4 5 4 4 4 3 4 5 4 3 3 3 3 3 3 3 2 2 1 2 1
2 2 2 2 2 2 1 1 1 2 2 3 3 4 3 3 3 3 3 4 4 4 3 3 3 3 2 2 2 2 2 3 3 3 3 2 1 1 1 1 2 2 1
2 2 2 2 1 2 2 2 2 3 4 4 4 4 4 4 5 6 4 4 4 4 3 1 1 1 1 1 1 1 1 1 2 2 2 2 2 2 2 1 1 1 2
1 2 2 1 1 1 2 3 3 3 4 5 4 4 4 4 4 5 6 6 5 6 4 2 3 3 3 3 3 2 2 2 2 2 2 2 2 2 2 1 1 2 2
2 2 2 2 2 2 2 2 3 4 4 3 4 4 3 3 3 5 6 6 5 6 3 3 3 4 3 3 3 3 3 3 3 3 3 2 2 2 2 2 2 2 2
2 3 3 2 3 3 3 3 2 3 3 3 4 4 4 3 4 4 5 4 2 3 2 3 4 4 3 3 3 3 3 2 2 3 3 2 2 2 2 2 2 2 2
2 2 2 2 2 2 2 2 3 3 3 3 3 4 4 3 3 3 4 3 3 3 3 3 3 3 3 3 3 3 3 3 3 3 3 3 3 3 2 2 2 2 2
3 5 4 2 2 2 2 2 3 3 3 3 3 3 2 1 1 1 2 2 3 3 3 3 3 3 3 3 3 3 3 3 3 3 3 3 3 3 3 3 2 2 2
2 3 5 3 2 3 3 3 3 3 4 4 4 3 3 2 3 3 3 3 3 4 4 3 3 3 3 3 3 4 4 4 4 4 3 3 3 3 3 3 3 3 2
2 2 2 3 3 3 3 3 3 3 3 4 3 3 3 2 2 2 3 3 3 3 3 4 3 3 4 4 4 4 4 4 4 4 4 3 3 3 3 3 2 2 2
2 2 2 3 3 3 3 2 2 3 3 3 3 3 2 2 2 3 3 3 2 2 3 3 3 3 3 4 5 5 5 5 5 5 4 4 4 4 3 3 3 3 3
2 2 3 3 3 3 3 3 3 3 3 3 3 3 2 3 3 3 3 2 2 2 2 3 3 4 5 4 4 5 6 6 6 6 6 5 4 4 3 3 3 4 3
2 2 3 3 3 3 3 3 3 3 3 3 3 3 3 2 2 2 2 2 2 2 2 2 2 3 4 5 5 5 6 7 8 7 6 5 5 5 4 4 4 3 3
2 2 3 2 2 3 3 3 3 3 3 3 3 3 3 3 3 3 2 2 2 2 2 2 3 4 4 4 5 6 6 7 8 8 7 5 5 5 5 4 4 4 4
Wind_Direction
215 214 210 210 206 208 215 221 216 205 195 194 193 191 193 193 187 181 190 188 195 210 208 199 215 184 172 171 154 147 147 149 190 285 316 325 342 343 350 349 351 358 1
218 211 215 215 209 212 220 224 220 212 204 201 194 193 198 197 192 191 197 196 200 210 212 202 217 188 180 172 165 171 171 167 173 235 311 329 310 314 335 10 1 349 337
223 213 219 221 216 224 227 222 211 214 210 201 192 194 200 197 194 200 200 201 207 214 211 207 208 184 194 190 186 188 183 169 157 176 267 309 316 338 357 0 5 357 348
215 211 221 231 228 227 224 217 207 209 208 205 205 204 203 200 197 198 199 206 212 219 215 211 203 194 202 199 199 196 176 161 152 155 221 279 286 303 26 319 336 345 347
217 224 239 244 242 230 218 213 204 200 211 206 204 210 204 200 201 196 198 204 207 216 221 218 213 205 203 197 198 190 175 171 169 175 208 240 255 232 231 220 250 317 329
226 239 248 250 244 232 227 217 203 204 211 211 210 214 215 217 209 203 195 203 210 215 222 226 223 222 223 215 211 195 182 180 184 187 208 218 232 224 213 203 198 343 298
295 280 260 239 238 244 232 210 212 214 211 213 219 216 225 229 221 214 206 199 208 216 220 217 221 217 216 212 220 216 209 208 197 191 199 219 217 211 190 202 208 212 240
336 316 298 268 250 244 221 228 231 223 216 218 222 223 229 236 231 225 219 203 205 213 214 211 212 219 208 197 192 203 218 226 216 208 209 221 216 201 195 199 201 203 280
333 313 292 273 260 246 240 242 237 223 226 225 223 222 230 248 241 234 219 195 207 219 217 210 205 208 213 195 178 196 222 247 238 227 231 234 228 209 180 149 155 169 258
309 303 290 266 248 243 243 247 250 233 232 228 230 227 229 240 238 232 215 192 203 217 221 222 217 210 209 195 187 191 214 233 225 236 254 256 229 198 191 183 185 191 213
300 302 297 275 253 247 251 255 251 238 228 232 237 240 238 240 241 231 218 198 203 210 216 227 225 214 213 206 198 199 216 214 202 206 221 231 214 199 204 197 188 192 203
308 311 308 296 280 281 255 267 255 223 216 233 243 258 256 250 240 232 222 213 202 201 215 221 219 208 208 208 208 219 216 195 178 187 201 213 221 229 236 224 209 209 213
318 312 307 308 306 296 267 257 261 231 221 235 237 246 260 261 250 240 230 223 213 209 214 210 206 204 210 219 223 213 196 176 177 195 213 224 228 235 240 238 226 223 247
308 302 300 303 309 312 287 241 232 240 247 247 242 246 252 256 250 241 231 230 220 215 214 201 189 181 183 198 205 205 187 187 185 204 216 223 222 222 220 212 211 211 230
305 301 295 285 287 290 289 271 250 245 239 242 243 237 233 248 245 229 217 217 207 198 168 144 147 162 194 210 211 205 188 179 196 202 204 208 216 225 236 225 201 190 213
295 299 288 278 278 277 286 311 315 290 287 278 264 250 255 251 242 231 230 227 216 188 166 176 193 197 203 206 206 210 204 210 214 206 205 207 214 220 227 224 205 203 220
256 274 279 269 266 268 271 276 301 318 314 299 284 270 265 258 241 226 224 219 206 181 182 192 201 207 207 208 208 206 213 219 211 207 208 213 218 217 213 213 215 220 231
269 278 281 260 256 257 257 263 267 278 299 305 295 277 271 261 246 231 207 176 189 185 192 203 210 208 205 206 207 207 211 213 213 217 210 210 212 214 218 216 212 219 227
274 270 266 264 263 259 263 267 265 263 269 283 300 297 282 272 242 222 186 179 195 207 207 209 214 213 207 207 207 202 200 207 212 212 213 208 207 207 219 224 218 213 215
273 284 293 282 275 273 268 267 264 261 264 267 271 280 294 321 288 238 206 202 204 211 209 213 213 210 208 207 208 200 201 207 207 210 212 207 204 203 209 212 211 208 217
274 282 295 302 279 271 268 264 259 256 260 265 271 267 235 235 238 236 233 224 220 218 213 213 211 206 210 208 206 207 209 214 212 208 208 208 203 207 210 204 207 209 205
267 274 284 285 285 280 278 274 265 259 263 269 284 279 250 247 250 245 240 242 233 224 214 208 212 212 212 210 205 206 211 216 214 209 209 207 204 204 202 200 199 205 200
269 273 286 290 289 286 288 287 279 272 270 269 272 269 253 244 246 248 249 245 233 226 217 208 213 224 224 216 211 207 210 213 210 202 200 202 201 200 195 196 201 203 208
265 266 272 278 279 279 278 277 278 277 271 269 268 263 253 246 249 251 249 244 239 234 226 219 220 225 224 225 222 219 220 217 209 204 198 197 200 201 196 195 201 206 207
277 270 271 268 269 274 278 275 274 276 271 265 264 266 266 266 261 257 249 242 233 239 243 240 236 235 234 233 228 224 219 211 207 203 198 196 194 195 195 196 198 200 204
295 293 286 281 279 277 277 276 273 272 270 267 261 259 259 259 258 253 243 237 236 242 244 249 246 241 240 239 235 224 215 210 206 202 195 192 190 194 193 198 200 202 201
Height
1510 1511 1512 1513 1514 1515 1516 1516 1517 1517 1517 1518 1518 1519 1519 1519 1519 1519 1519 1519 1519 1519 1519 1519 1520 1520 1520 1520 1520 1520 1520 1521 1520 1520 1520 1520 1520 1520 1521 1521 1521 1521 1522
1507 1508 1509 1510 1511 1512 1512 1513 1514 1514 1514 1514 1515 1515 1516 1516 1516 1516 1516 1516 1517 1516 1516 1517 1517 1517 1517 1518 1518 1518 1518 1518 1518 1517 1518 1518 1518 1519 1519 1519 1519 1520 1520
1505 1506 1506 1507 1507 1508 1509 1510 1510 1511 1511 1511 1511 1511 1512 1512 1513 1513 1513 1513 1513 1514 1514 1514 1514 1514 1514 1515 1515 1515 1516 1516 1516 1516 1515 1516 1516 1516 1516 1517 1517 1518 1518
1503 1503 1503 1504 1504 1505 1505 1506 1507 1507 1507 1507 1508 1508 1508 1508 1509 1510 1510 1510 1510 1510 1511 1511 1511 1511 1511 1512 1512 1513 1513 1513 1513 1514 1513 1513 1513 1514 1514 1514 1515 1515 1515
1500 1500 1501 1501 1501 1501 1502 1502 1503 1503 1504 1504 1504 1504 1504 1505 1505 1506 1506 1506 1506 1507 1507 1507 1508 1508 1508 1509 1509 1510 1510 1510 1511 1511 1511 1511 1511 1511 1511 1512 1512 1512 1512
1497 1498 1498 1498 1498 1498 1498 1498 1499 1499 1500 1500 1500 1500 1501 1501 1501 1502 1502 1503 1503 1503 1503 1504 1504 1504 1505 1506 1506 1507 1507 1507 1507 1508 1508 1508 1508 1509 1509 1509 1510 1509 1509
1495 1495 1495 1495 1494 1494 1494 1495 1495 1495 1496 1496 1496 1496 1496 1497 1497 1498 1498 1499 1499 1499 1499 1500 1500 1501 1501 1502 1503 1503 1504 1504 1505 1505 1505 1505 1505 1506 1506 1506 1507 1507 1507
1493 1492 1492 1492 1491 1491 1491 1491 1491 1491 1491 1491 1491 1492 1492 1493 1494 1494 1494 1495 1495 1495 1495 1495 1496 1497 1497 1498 1499 1499 1500 1500 1501 1501 1501 1502 1502 1503 1503 1504 1504 1504 1504
1490 1490 1489 1488 1488 1487 1487 1487 1487 1487 1487 1487 1487 1487 1488 1488 1489 1490 1490 1490 1490 1490 1491 1492 1492 1493 1494 1494 1495 1495 1496 1496 1497 1497 1498 1498 1499 1499 1500 1500 1500 1500 1500
1487 1487 1487 1486 1484 1484 1483 1483 1483 1483 1483 1483 1483 1483 1483 1484 1485 1485 1486 1486 1486 1486 1487 1487 1488 1488 1489 1490 1490 1491 1491 1492 1493 1493 1494 1494 1494 1495 1495 1496 1496 1496 1496
1485 1484 1484 1483 1482 1481 1480 1480 1479 1479 1479 1479 1478 1478 1479 1480 1480 1481 1481 1481 1481 1482 1482 1483 1484 1484 1485 1485 1486 1486 1487 1488 1488 1489 1489 1489 1490 1490 1490 1491 1492 1492 1492
1482 1481 1480 1479 1478 1478 1477 1476 1475 1475 1474 1474 1474 1474 1475 1475 1476 1476 1477 1477 1477 1478 1478 1478 1479 1480 1480 1481 1481 1482 1483 1483 1483 1484 1484 1484 1485 1485 1486 1487 1487 1488 1488
1478 1478 1477 1476 1475 1474 1473 1472 1471 1471 1470 1470 1470 1470 1470 1471 1471 1471 1472 1472 1473 1473 1473 1474 1475 1475 1476 1476 1477 1477 1478 1478 1479 1479 1479 1480 1481 1482 1482 1483 1483 1484 1484
1474 1474 1473 1472 1471 1471 1470 1469 1468 1467 1467 1466 1466 1466 1465 1466 1466 1466 1466 1467 1468 1468 1469 1469 1470 1470 1471 1472 1472 1472 1473 1473 1474 1475 1475 1476 1477 1477 1478 1478 1478 1479 1479
1471 1470 1469 1469 1468 1467 1467 1466 1465 1464 1464 1463 1462 1462 1462 1461 1462 1462 1462 1462 1463 1463 1464 1464 1465 1465 1466 1466 1467 1467 1468 1469 1469 1470 1471 1472 1472 1473 1473 1474 1474 1474 1474
1468 1467 1466 1466 1465 1464 1463 1462 1461 1461 1460 1459 1459 1458 1458 1458 1458 1458 1458 1458 1459 1459 1459 1459 1460 1460 1461 1461 1462 1463 1464 1464 1465 1465 1466 1467 1467 1468 1468 1469 1470 1470 1470
1465 1464 1463 1463 1462 1461 1460 1459 1457 1456 1456 1455 1454 1454 1453 1453 1453 1453 1454 1454 1455 1455 1455 1455 1456 1456 1457 1457 1458 1458 1459 1460 1461 1461 1461 1462 1463 1463 1464 1465 1466 1466 1467
1462 1461 1461 1459 1459 1458 1457 1455 1454 1453 1451 1450 1450 1450 1449 1448 1448 1448 1449 1449 1450 1450 1450 1451 1451 1452 1452 1453 1453 1454 1455 1456 1456 1457 1457 1458 1459 1460 1460 1461 1462 1462 1463
1459 1458 1457 1456 1455 1454 1453 1452 1451 1449 1448 1447 1446 1445 1445 1444 1444 1444 1444 1444 1445 1446 1446 1447 1448 1448 1447 1448 1449 1450 1450 1451 1452 1453 1453 1454 1455 1456 1457 1458 1458 1459 1460
1456 1455 1454 1453 1451 1450 1449 1448 1447 1446 1444 1443 1442 1441 1440 1440 1439 1440 1440 1440 1441 1441 1442 1443 1443 1444 1444 1444 1446 1446 1447 1448 1448 1449 1449 1450 1451 1452 1453 1454 1455 1456 1457
1452 1451 1450 1449 1447 1446 1446 1444 1443 1442 1440 1439 1438 1438 1437 1436 1436 1436 1436 1436 1437 1437 1438 1438 1439 1440 1440 1441 1442 1443 1444 1444 1445 1445 1446 1447 1448 1449 1450 1451 1452 1453 1454
1448 1447 1446 1444 1443 1442 1442 1441 1439 1438 1437 1436 1434 1434 1433 1433 1432 1432 1432 1432 1433 1433 1434 1435 1435 1436 1437 1438 1438 1439 1440 1440 1441 1442 1443 1443 1444 1445 1447 1448 1449 1450 1451
1445 1443 1442 1441 1440 1439 1438 1437 1436 1434 1433 1432 1431 1430 1430 1429 1428 1428 1429 1429 1429 1430 1430 1431 1431 1432 1433 1434 1434 1435 1436 1436 1437 1439 1440 1440 1441 1442 1444 1445 1446 1447 1448
1441 1440 1438 1437 1436 1435 1434 1433 1432 1431 1430 1429 1428 1427 1426 1426 1425 1425 1426 1426 1426 1426 1427 1427 1428 1428 1429 1430 1430 1431 1432 1433 1434 1435 1436 1437 1438 1439 1440 1442 1443 1444 1444
1437 1436 1434 1433 1432 1431 1430 1429 1428 1427 1426 1425 1425 1424 1423 1423 1422 1422 1422 1422 1422 1423 1423 1423 1424 1424 1425 1426 1426 1427 1428 1429 1430 1431 1432 1434 1434 1436 1437 1438 1439 1440 1441
1433 1432 1431 1430 1429 1428 1427 1425 1424 1424 1423 1422 1421 1420 1420 1419 1419 1419 1419 1419 1419 1419 1419 1420 1420 1420 1421 1422 1422 1423 1423 1424 1425 1427 1428 1430 1431 1432 1433 1435 1436 1437 1438